SCP
0 0 0 0 0 0 0 0 0 0 0 0 0 0 0 0 0 0 0 0 0 0 0 0 0 0 0 0 0 0 0 0 0 0 0 0 0 0 0 0 0 0 0
0 0 0 0 0 0 0 0 0 0 0 0 0 0 0 0 0 0 0 0 0 0 0 0 0 0 0 0 0 0 0 0 0 0 0 0 0 0 0 0 0 0 0
0 0 0 0 0 0 0 0 0 0 0 0 0 0 0 0 0 0 0 0 0 0 0 0 0 0 0 0 0 0 0 0 0 0 0 0 0 0 0 0 0 0 0
0 0 0 0 0 0 0 0 0 0 0 0 0 0 0 0 0 0 0 0 0 0 0 0 0 0 0 0 0 0 0 0 0 0 0 0 0 0 0 0 0 0 0
0 0 0 0 0 0 0 0 0 0 0 0 0 0 0 0 0 0 0 0 0 0 0 0 0 0 0 0 0 0 0 0 0 0 0 0 0 0 0 0 0 0 0
0 0 0 0 0 0 0 0 0 0 0 0 0 0 0 0 0 0 0 0 0 0 0 0 0 0 0 0 0 0 0 0 0 0 0 0 0 0 0 0 0 0 0
0 0 0 0 0 0 0 0 0 0 0 0 0 0 0 0 0 0 0 0 0 0 0 0 0 0 0 0 0 0 0 0 0 0 0 0 0 0 0 0 0 0 0
0 0 0 0 0 0 0 0 0 0 0 0 0 0 0 0 0 0 0 0 0 0 0 0 0 0 0 0 0 0 0 0 0 0 0 0 0 0 0 0 0 0 0
0 0 0 0 0 0 0 0 0 0 0 0 0 0 0 0 0 0 0 0 0 0 0 0 0 0 0 0 0 0 0 0 0 0 0 0 0 0 0 0 0 0 0
0 0 0 0 0 0 0 0 0 0 0 0 0 0 0 0 0 0 0 0 0 0 0 0 0 0 0 0 0 0 0 0 0 0 0 0 0 0 0 0 0 0 0
0 0 0 0 0 0 0 0 0 0 0 0 0 0 0 0 -0 -0 -0 0 0 0 0 0 0 0 0 0 0 0 0 0 0 0 0 0 0 0 0 0 0 0 0
0 0 0 0 0 0 0 0 0 0 0 0 0 0 0 0 -0 -0 0 0 0 0 0 0 0 0 0 0 0 0 0 0 0 0 0 0 0 0 0 0 0 0 0
0 0 0 0 0 0 0 0 0 0 0 0 0 0 0 0 0 0 0 0 0 0 0 0 0 0 0 0 0 0 0 0 0 0 0 0 0 0 0 0 0 0 0
0 0 0 0 0 0 0 0 0 0 0 0 0 0 0 0 0 0 0 0 0 0 0 0 0 0 0 0 0 0 0 0 0 0 0 0 0 0 0 0 0 0 0
0 0 0 0 0 0 0 0 0 0 0 0 0 0 -0 -0 0 0 0 0 0 0 0 0 0 0 0 0 0 0 0 0 0 0 0 0 0 0 0 0 0 0 0
0 0 0 0 0 0 0 0 0 0 0 0 0 0 -0 -0 0 0 0 0 0 0 0 0 0 0 0 0 0 0 0 0 0 0 0 0 0 0 0 0 0 0 0
0 0 0 0 0 0 0 0 0 0 0 0 0 0 0 0 0 0 0 0 0 0 0 0 0 0 0 0 0 0 0 0 0 0 0 0 0 0 0 0 0 0 0
0 0 0 0 0 0 0 0 0 0 0 0 0 0 0 0 0 0 0 0 0 0 0 0 0 0 0 0 0 0 0 0 0 0 0 0 0 0 0 0 0 0 0
0 0 0 0 0 0 0 0 0 0 0 0 0 0 0 0 0 0 0 0 0 0 0 0 0 0 0 0 0 0 0 0 0 0 0 0 0 0 0 0 0 0 0
0 0 0 0 0 0 0 0 0 0 0 0 0 0 0 0 0 0 0 0 0 0 0 0 0 0 0 0 0 0 0 0 0 0 0 0 0 0 0 0 0 0 0
0 0 0 0 0 0 0 0 0 0 0 0 0 0 0 0 0 0 0 0 0 0 0 0 0 0 0 0 0 0 0 0 0 0 0 0 0 0 0 0 0 0 0
0 0 0 0 0 0 0 0 0 0 0 0 0 0 0 0 0 0 0 0 0 0 0 0 0 0 0 0 0 -0 -0 0 0 0 0 0 0 0 0 0 0 0 0
0 0 0 0 0 0 0 0 0 0 0 0 0 0 0 0 0 0 0 0 0 0 0 0 0 0 0 0 0 0 0 0 0 0 0 0 0 0 0 0 0 0 0
0 0 0 0 0 0 0 -0 0 0 0 0 0 0 0 0 0 0 0 0 0 0 0 0 0 0 0 0 0 0 0 0 0 0 0 -0 -0 -0 -0 0 0 0 0
0 0 0 0 0 0 -0 -0 0 0 0 0 0 0 0 0 0 0 0 -0 0 0 0 0 0 0 0 0 0 0 0 0 0 -0 -0 -0 -0 -0 0 0 0 0 0
0 0 0 0 0 0 0 0 0 0 0 0 0 -0 0 0 0 0 0 -0 -0 0 0 0 0 0 0 0 0 0 0 0 0 -0 -0 -0 -0 -0 0 0 0 0 0
Wind_Speed
4 5 6 5 5 5 5 4 5 3 3 2 2 2 2 2 3 3 4 4 4 4 3 2 3 2 2 1 1 0 0 0 1 1 1 2 2 3 2 2 2 2 2
5 5 5 5 5 4 4 5 4 3 3 2 2 2 2 2 2 2 4 5 5 4 3 3 3 3 2 2 2 1 0 0 0 1 1 1 2 2 3 2 2 3 2
7 6 5 5 5 5 4 4 4 4 4 3 3 3 3 2 3 3 3 5 5 4 4 4 3 3 2 2 2 1 0 1 1 0 1 1 1 1 2 2 2 3 2
7 6 5 5 4 4 4 4 5 5 4 3 3 4 3 2 2 1 2 4 5 5 5 4 4 3 2 2 2 1 1 0 1 1 0 0 1 1 0 1 2 3 2
8 7 6 6 5 4 4 4 5 5 4 4 4 5 4 2 1 2 3 4 4 5 5 4 3 3 2 2 3 2 2 0 1 1 0 0 1 0 1 1 1 2 2
7 6 5 6 5 5 4 4 5 5 4 4 4 5 4 3 3 3 3 3 3 4 5 4 4 3 3 3 3 2 2 1 1 0 1 1 1 1 1 1 1 1 1
9 8 8 6 6 5 4 4 5 5 4 4 4 4 4 3 3 2 2 3 3 3 5 5 4 3 3 3 3 2 2 2 1 1 1 1 1 1 1 1 1 0 1
9 9 8 7 6 6 4 4 5 4 4 4 4 4 4 2 2 2 2 2 2 3 4 4 4 4 4 4 3 2 2 2 2 1 1 0 0 1 1 2 2 1 0
10 9 8 7 7 6 5 4 4 4 3 4 4 4 4 3 3 3 3 2 3 3 5 5 5 5 5 4 3 2 3 3 2 2 1 1 0 0 1 1 2 2 1
8 8 8 7 6 6 5 5 4 4 3 4 3 3 3 3 3 3 4 4 4 4 5 5 5 5 5 5 4 3 3 3 2 1 2 2 1 1 1 1 1 1 2
8 8 7 7 7 6 5 5 4 4 4 4 4 4 3 3 3 3 4 3 4 4 5 5 5 5 5 5 4 3 3 3 3 3 2 2 2 1 1 1 1 1 1
8 8 8 7 7 6 5 4 4 4 3 3 4 4 4 4 4 4 4 4 4 4 4 4 5 5 5 5 4 4 4 4 4 3 3 3 2 2 1 1 1 1 1
8 7 7 6 6 6 5 4 3 3 3 4 4 4 3 3 3 4 4 4 4 4 5 5 5 5 5 5 4 4 4 4 4 3 3 2 2 2 1 1 1 1 2
8 7 6 6 5 5 5 4 3 3 4 4 4 3 3 3 3 3 3 4 4 4 5 5 5 5 5 5 5 4 4 4 4 4 3 3 2 1 1 1 1 2 2
8 8 7 6 6 5 4 4 3 2 3 4 3 2 2 2 3 3 3 4 4 5 4 5 6 6 4 4 5 4 4 4 4 4 4 4 3 3 1 0 1 2 2
8 8 7 7 7 6 4 3 3 2 3 4 3 3 3 3 3 3 3 4 4 4 5 6 6 6 5 7 7 4 3 4 4 5 5 4 5 5 5 3 3 3 4
8 8 7 7 6 6 5 4 3 3 4 3 3 3 3 3 3 3 4 4 4 4 5 5 5 6 7 8 7 6 4 4 4 4 4 4 5 6 4 5 6 5 4
7 7 6 6 5 5 5 4 4 4 4 3 3 3 3 2 3 3 3 3 3 3 3 4 5 5 7 9 8 7 5 5 5 5 4 4 5 5 5 5 5 5 4
6 6 6 6 6 6 5 5 4 4 4 3 3 3 2 2 2 3 2 2 2 3 3 4 5 5 6 9 8 6 4 5 6 6 6 5 5 7 6 6 5 5 5
6 6 6 6 6 5 5 6 5 4 3 3 2 3 3 2 2 1 1 2 2 2 3 4 4 4 5 8 8 6 3 4 4 5 5 7 7 7 7 5 4 5 4
7 7 7 6 6 6 6 6 5 4 3 3 3 3 2 2 1 1 1 2 2 3 3 4 4 4 5 7 8 7 3 3 3 4 4 5 8 8 7 5 3 2 2
7 7 7 6 5 6 6 6 4 3 3 4 3 2 2 1 2 2 2 2 2 3 3 3 4 4 4 5 7 8 6 3 2 2 3 4 7 7 6 4 4 4 3
7 6 7 7 4 4 5 6 4 3 4 4 3 2 2 2 2 2 2 2 2 2 2 2 3 4 4 4 6 7 6 5 2 2 3 5 5 5 4 6 6 4 3
6 6 7 7 4 3 4 4 4 4 5 4 2 2 2 2 2 2 1 1 1 1 1 2 2 3 3 3 4 4 3 4 3 3 4 5 5 4 3 3 4 3 2
5 6 6 6 5 4 4 3 4 5 4 3 2 2 1 1 1 1 1 0 1 2 2 2 2 2 3 4 4 2 2 2 2 2 2 3 3 4 3 3 2 2 1
6 5 5 5 4 4 4 3 3 5 4 3 1 1 1 0 0 1 2 2 2 3 3 4 4 3 5 6 5 3 4 3 2 2 2 2 2 2 3 3 3 2 2
Wind_Direction
121 103 100 98 90 76 77 77 79 69 78 80 81 73 50 33 30 27 23 21 22 24 34 27 23 25 35 13 359 16 18 355 50 66 20 7 24 39 36 21 27 25 17
130 120 108 99 92 85 78 77 73 66 64 72 85 92 91 65 51 23 22 20 21 20 27 30 22 14 14 13 3 360 294 306 93 109 110 336 349 8 22 18 23 21 26
155 145 128 111 99 91 81 84 76 66 58 65 83 79 63 46 32 19 12 6 13 20 21 21 24 15 17 3 349 335 279 240 234 131 161 175 224 306 0 13 14 16 26
152 148 139 125 115 102 89 83 76 68 62 69 90 92 90 76 36 11 4 3 11 15 18 17 19 21 18 7 345 350 310 209 234 253 4 108 161 172 309 350 5 15 25
156 152 145 134 120 109 101 90 81 69 62 68 85 88 83 79 50 28 20 13 7 9 11 13 12 9 8 5 1 357 347 321 236 219 171 92 47 114 181 254 336 357 4
152 141 132 124 115 105 96 94 88 71 63 69 73 87 90 81 61 36 21 9 0 1 3 3 5 4 2 359 353 358 359 343 310 276 175 166 173 190 182 200 230 312 336
156 154 149 141 128 115 104 99 97 80 67 70 67 71 77 74 67 44 23 11 6 356 350 356 355 358 357 357 354 10 1 349 346 309 265 219 214 183 172 166 186 251 337
159 159 155 145 135 125 113 103 102 94 80 76 67 57 56 60 57 46 31 16 359 342 346 357 359 359 1 4 7 12 355 357 355 357 342 6 250 183 173 171 167 152 20
158 155 148 141 135 129 123 119 115 103 89 84 79 66 57 53 48 39 26 13 0 357 5 7 6 3 4 5 7 11 2 4 4 359 10 19 345 104 156 163 177 165 173
151 148 143 139 134 131 122 113 109 106 92 79 70 69 58 50 44 40 24 17 10 10 10 11 9 7 9 10 12 7 6 16 8 4 27 27 11 23 85 144 160 168 163
148 143 137 133 127 121 115 108 102 97 90 85 78 66 52 45 42 40 25 18 16 15 13 6 5 8 10 6 11 12 15 22 14 14 26 24 20 29 25 71 102 120 138
136 135 133 131 128 124 118 111 106 103 99 94 86 72 55 48 44 34 22 21 22 15 9 6 10 10 11 8 13 14 19 23 16 11 21 20 24 26 21 47 76 118 141
131 130 130 134 135 131 126 121 116 111 100 92 85 71 54 48 39 26 18 21 23 17 13 13 14 10 9 11 11 19 23 22 15 9 14 15 32 25 17 45 82 103 116
140 139 136 135 135 134 133 129 120 117 110 99 93 81 57 45 36 28 23 23 24 22 17 15 14 10 11 13 9 17 23 21 16 13 12 9 18 17 16 58 106 109 105
147 150 148 145 142 138 131 125 117 107 111 108 98 82 63 53 48 37 29 29 30 26 18 19 16 9 9 8 5 11 21 20 14 14 13 14 24 31 30 100 143 132 123
158 155 153 150 149 147 140 131 122 114 115 111 98 84 72 60 45 32 34 36 31 21 22 20 14 11 8 7 12 19 26 23 20 13 10 15 29 28 29 47 101 141 150
162 161 160 157 155 154 150 147 140 122 110 107 99 87 75 58 41 40 42 34 24 20 19 13 16 11 4 13 22 31 43 38 30 23 18 21 21 25 36 51 61 66 86
160 157 152 148 145 143 139 135 126 116 111 105 97 90 82 63 52 52 44 28 21 22 14 8 11 10 5 13 26 38 48 43 31 25 24 26 21 27 39 56 57 51 49
151 149 151 146 138 138 139 130 120 115 112 110 102 91 88 80 66 53 37 22 23 22 17 10 13 12 2 9 21 36 42 40 30 26 29 29 33 27 43 62 62 53 42
131 135 134 128 131 137 135 128 127 124 127 125 118 105 97 92 75 51 37 25 32 26 22 22 16 14 8 9 21 31 43 39 25 20 22 28 30 26 36 55 63 53 32
128 130 129 131 139 137 130 127 128 135 137 122 113 102 93 98 99 62 43 44 44 40 29 18 8 12 9 10 19 27 46 44 31 22 13 10 14 21 32 46 63 58 33
124 127 126 125 127 128 126 126 134 140 121 109 98 87 72 72 86 77 55 51 53 46 22 11 3 3 3 10 13 23 32 41 51 19 359 355 5 15 26 39 47 52 55
129 128 129 124 119 126 133 139 152 136 121 110 99 83 72 60 65 76 68 49 45 47 16 11 358 345 347 353 5 12 16 22 35 353 347 351 6 18 27 29 31 42 53
130 130 128 129 130 131 138 149 149 134 125 120 108 91 83 58 49 59 70 70 30 9 350 342 332 329 336 343 347 352 358 4 5 355 358 7 24 34 32 22 24 30 30
126 131 137 141 144 139 141 150 147 135 129 126 116 98 85 73 43 30 9 269 255 228 238 269 274 305 318 313 318 330 339 337 331 345 9 17 12 13 10 9 9 12 17
129 130 135 141 146 144 149 157 152 146 142 137 135 137 127 108 89 6 344 326 269 287 256 240 241 255 258 290 318 330 332 336 355 50 28 3 352 350 344 341 343 346 347